星链-36212(STARLINK-36212)

导读 | 豆包AI

STARLINK-36212是美国SpaceX星链星座的卫星,于2025年12月17日发射。作为星链互联网星座的组成部分,它承担着为全球提供低成本、高覆盖率宽带互联网服务的任务,依托低轨部署优势降低信号延迟,支撑星链网络在民用通信、偏远地区联网等场景的服务能力。

基本信息
目录编号:
67216
目录名称:
STARLINK-36212
国际标识:
2025-304AA
轨道中心:
EARTH
卫星名称:
星链-36212
卫星全名:
星链-36212(STARLINK-36212)
卫星状态:
在轨 (已飞行87 天)
发射日期:
2025-12-17 UTC
国别 :
美国 (US)
星等 :
--
轨道信息
数据来源 国际轨道数据
星历时间: 2026-03-13T22:00:01+0800
11小时前
查看轨道信息
半长轴: 6950.203km
偏心率: 0.0003729
轨道倾角: 70.001°
近地点辐角 273.025°
升交点赤经 164.714°
平近点角 169.116°
近地点: 569.474km
远地点: 574.658km
周期: 96.107分钟
每日圈数: 14.98327
详细信息
固有亮度:
5
最大亮度:
2.5
卫星平台:
Starlink V1.0
覆盖范围:
全球
运营商:
太空探索技术公司
运营商所在国:
美国
制造商(研发单位):
太空探索技术公司
制造商所在国:
美国
使用方式:
暂无
卫星简介
Starlink 计划是 SpaceX 推出的全球卫星互联网项目,通过发射低轨道卫星,为全球尤其是偏远地区提供高速、低延迟的互联网服务。自 2019 年起,Starlink 已部署数千颗卫星,旨在缩小全球数字鸿沟,推动互联网普及。该项目还为军事、航空等行业提供通信支持,带来广泛经济效益。
2D轨道图
3D轨道图
轨道高度分析图
轨道倾角分析图
轨道综合分析图
查看轨道综合分析图